When you browse on this site, cookies collect data to enhance your experience and personalize the content and advertising you see.
Visit our Privacy Policy to learn more. By continuing to use the site, you agree to this use of cookies and data.
  • In Hungary
  • List of Countries
  • For 7 days
  • Water Temperature
  • Weather Map
  • News
  • Weather Widgets
  • user-avatar
    Login

    Hourly Weather Baykal

    Today, 20 October, Sunday

    Time Temperature Precipitation Wind Pressure Humidity
    00:00 -1°C° 0 mm 4 mps 750 mmHg 69%
    01:00 -1°C° 0 mm 4 mps 750 mmHg 69%
    02:00 -2°C° 0 mm 4 mps 750 mmHg 69%
    03:00 -2°C° 0 mm 4 mps 750 mmHg 69%
    04:00 -2°C° 0 mm 3 mps 751 mmHg 70%
    05:00 -2°C° 0 mm 3 mps 751 mmHg 69%
    06:00 -2°C° 0 mm 3 mps 752 mmHg 68%
    07:00 -3°C° 0 mm 4 mps 752 mmHg 66%
    08:00 -2°C° 0 mm 4 mps 752 mmHg 63%
    09:00 -2°C° 0 mm 4 mps 752 mmHg 60%
    10:00 -1°C° 0 mm 4 mps 752 mmHg 58%
    11:00 -1°C° 0 mm 4 mps 752 mmHg 57%
    12:00 0°C° 0 mm 4 mps 752 mmHg 55%
    13:00 +1°C° 0 mm 4 mps 752 mmHg 54%
    14:00 +2°C° 0 mm 3 mps 752 mmHg 55%
    15:00 +2°C° 0 mm 3 mps 752 mmHg 55%
    16:00 +2°C° 0 mm 3 mps 752 mmHg 58%
    17:00 +2°C° 0 mm 3 mps 752 mmHg 59%
    18:00 +2°C° 0 mm 3 mps 753 mmHg 61%
    19:00 +1°C° 0 mm 3 mps 753 mmHg 62%
    20:00 +1°C° 0 mm 3 mps 752 mmHg 62%
    21:00 0°C° 0 mm 4 mps 752 mmHg 61%
    22:00 0°C° 0 mm 4 mps 752 mmHg 61%
    23:00 0°C° 0 mm 4 mps 752 mmHg 61%

    Tomorrow, 21 October, Monday

    Time Temperature Precipitation Wind Pressure Humidity
    00:00 -1°C° 0 mm 5 mps 752 mmHg 60%
    01:00 -1°C° 0 mm 5 mps 752 mmHg 60%
    02:00 -1°C° 0 mm 5 mps 752 mmHg 61%
    03:00 -2°C° 0 mm 5 mps 752 mmHg 62%
    04:00 -2°C° 0 mm 5 mps 752 mmHg 63%
    05:00 -2°C° 0 mm 5 mps 752 mmHg 63%
    06:00 -2°C° 0 mm 5 mps 751 mmHg 63%
    07:00 -2°C° 0 mm 5 mps 751 mmHg 63%
    08:00 -2°C° 0 mm 6 mps 751 mmHg 62%
    09:00 -2°C° 0 mm 6 mps 751 mmHg 61%
    10:00 -2°C° 0 mm 6 mps 751 mmHg 60%
    11:00 -1°C° 0 mm 6 mps 751 mmHg 61%
    12:00 -1°C° 0 mm 6 mps 750 mmHg 62%
    13:00 -1°C° 0 mm 6 mps 750 mmHg 63%
    14:00 +1°C° 0.1 mm 6 mps 750 mmHg 64%
    15:00 +1°C° 0.1 mm 6 mps 750 mmHg 65%
    16:00 +1°C° 0.1 mm 6 mps 750 mmHg 66%
    17:00 +2°C° 0.1 mm 6 mps 749 mmHg 66%
    18:00 +2°C° 0.1 mm 6 mps 749 mmHg 65%
    19:00 +2°C° 0.1 mm 6 mps 749 mmHg 65%
    20:00 +2°C° 0 mm 6 mps 748 mmHg 65%
    21:00 +2°C° 0 mm 6 mps 748 mmHg 65%
    22:00 +2°C° 0 mm 6 mps 748 mmHg 65%
    23:00 +2°C° 0 mm 7 mps 747 mmHg 66%

    Day after tomorrow, 22 October, Tuesday

    Time Temperature Precipitation Wind Pressure Humidity
    00:00 0°C° 0 mm 7 mps 746 mmHg 67%
    01:00 0°C° 0 mm 7 mps 746 mmHg 68%
    02:00 0°C° 0 mm 7 mps 746 mmHg 68%
    03:00 0°C° 0 mm 7 mps 745 mmHg 68%
    04:00 +1°C° 0 mm 8 mps 745 mmHg 68%
    05:00 +1°C° 0 mm 8 mps 744 mmHg 69%
    06:00 +1°C° 0 mm 8 mps 744 mmHg 69%
    07:00 +2°C° 0 mm 8 mps 743 mmHg 70%
    08:00 +2°C° 0.6 mm 8 mps 743 mmHg 73%
    09:00 +3°C° 0.6 mm 7 mps 743 mmHg 77%
    10:00 +3°C° 0.6 mm 7 mps 742 mmHg 80%
    11:00 +3°C° 0.6 mm 7 mps 742 mmHg 83%
    12:00 +3°C° 0.6 mm 6 mps 742 mmHg 85%
    13:00 +4°C° 0.6 mm 6 mps 742 mmHg 87%
    14:00 +5°C° 0.4 mm 5 mps 742 mmHg 89%
    15:00 +5°C° 0.4 mm 5 mps 742 mmHg 90%
    16:00 +5°C° 0.4 mm 5 mps 742 mmHg 91%
    17:00 +5°C° 0 mm 4 mps 742 mmHg 93%
    18:00 +5°C° 0 mm 3 mps 742 mmHg 94%
    19:00 +5°C° 0 mm 3 mps 743 mmHg 95%
    20:00 +5°C° 0 mm 3 mps 743 mmHg 92%
    21:00 +5°C° 0 mm 3 mps 743 mmHg 89%
    22:00 +5°C° 0 mm 3 mps 743 mmHg 86%
    23:00 +5°C° 0 mm 2 mps 743 mmHg 85%

    23 October, Wednesday

    Time Temperature Precipitation Wind Pressure Humidity
    00:00 +5°C° 0 mm 2 mps 743 mmHg 84%
    01:00 +4°C° 0 mm 2 mps 743 mmHg 83%
    02:00 +4°C° 0 mm 2 mps 744 mmHg 83%
    03:00 +4°C° 0 mm 2 mps 744 mmHg 82%
    04:00 +3°C° 0 mm 2 mps 744 mmHg 82%
    05:00 +3°C° 0 mm 2 mps 744 mmHg 85%
    06:00 +2°C° 0 mm 2 mps 744 mmHg 88%
    07:00 +1°C° 0 mm 2 mps 744 mmHg 91%
    08:00 +2°C° 0 mm 2 mps 745 mmHg 85%
    09:00 +2°C° 0 mm 2 mps 745 mmHg 80%
    10:00 +3°C° 0 mm 2 mps 745 mmHg 74%
    11:00 +4°C° 0 mm 2 mps 745 mmHg 68%
    12:00 +4°C° 0 mm 2 mps 744 mmHg 63%
    13:00 +5°C° 0 mm 2 mps 744 mmHg 57%
    14:00 +5°C° 0 mm 2 mps 744 mmHg 58%
    15:00 +4°C° 0 mm 3 mps 744 mmHg 60%
    16:00 +4°C° 0 mm 3 mps 744 mmHg 61%
    17:00 +3°C° 0 mm 3 mps 744 mmHg 66%
    18:00 +3°C° 0 mm 3 mps 743 mmHg 70%
    19:00 +2°C° 0 mm 3 mps 743 mmHg 74%
    20:00 +1°C° 0 mm 4 mps 743 mmHg 75%
    21:00 +1°C° 0 mm 4 mps 743 mmHg 76%
    22:00 +3°C° 0 mm 4 mps 742 mmHg 76%
    23:00 +3°C° 0.1 mm 4 mps 742 mmHg 80%

    24 October, Thursday

    Time Temperature Precipitation Wind Pressure Humidity
    00:00 +3°C° 0.1 mm 4 mps 742 mmHg 83%
    01:00 +4°C° 0.1 mm 4 mps 741 mmHg 87%
    02:00 +4°C° 0 mm 4 mps 741 mmHg 89%
    03:00 +4°C° 0 mm 4 mps 741 mmHg 91%
    04:00 +5°C° 0 mm 4 mps 741 mmHg 93%
    05:00 +5°C° 0 mm 4 mps 741 mmHg 93%
    06:00 +5°C° 0 mm 4 mps 741 mmHg 94%
    07:00 +5°C° 0 mm 4 mps 741 mmHg 94%
    08:00 +7°C° 0 mm 3 mps 742 mmHg 92%
    09:00 +7°C° 0 mm 3 mps 742 mmHg 90%
    10:00 +8°C° 0 mm 3 mps 742 mmHg 88%
    11:00 +9°C° 0 mm 3 mps 742 mmHg 86%
    12:00 +9°C° 0 mm 3 mps 743 mmHg 84%
    13:00 +10°C° 0 mm 3 mps 743 mmHg 81%
    14:00 +9°C° 0 mm 3 mps 743 mmHg 83%
    15:00 +9°C° 0 mm 3 mps 743 mmHg 84%
    16:00 +9°C° 0 mm 3 mps 743 mmHg 85%
    17:00 +9°C° 0 mm 3 mps 743 mmHg 85%
    18:00 +8°C° 0 mm 3 mps 743 mmHg 85%
    19:00 +8°C° 0 mm 3 mps 743 mmHg 85%
    20:00 +8°C° 0 mm 2 mps 744 mmHg 85%
    21:00 +8°C° 0 mm 2 mps 744 mmHg 85%
    22:00 +8°C° 0 mm 2 mps 744 mmHg 86%
    23:00 +7°C° 0 mm 2 mps 744 mmHg 86%

    25 October, Friday

    Time Temperature Precipitation Wind Pressure Humidity
    00:00 +7°C° 0 mm 2 mps 744 mmHg 87%
    01:00 +7°C° 0 mm 2 mps 744 mmHg 87%
    02:00 +7°C° 0 mm 2 mps 745 mmHg 88%
    03:00 +7°C° 0 mm 2 mps 745 mmHg 88%
    04:00 +7°C° 0 mm 2 mps 745 mmHg 89%
    05:00 +7°C° 0 mm 1 mps 745 mmHg 90%
    06:00 +6°C° 0 mm 1 mps 745 mmHg 90%
    07:00 +6°C° 0 mm 1 mps 745 mmHg 90%
    08:00 +7°C° 0 mm 1 mps 745 mmHg 87%
    09:00 +8°C° 0 mm 1 mps 745 mmHg 83%
    10:00 +8°C° 0 mm 1 mps 746 mmHg 80%
    11:00 +8°C° 0 mm 2 mps 746 mmHg 78%
    12:00 +9°C° 0 mm 2 mps 746 mmHg 76%
    13:00 +9°C° 0 mm 3 mps 746 mmHg 74%
    14:00 +9°C° 0 mm 2 mps 745 mmHg 74%
    15:00 +9°C° 0 mm 2 mps 745 mmHg 74%
    16:00 +9°C° 0 mm 2 mps 745 mmHg 73%
    17:00 +9°C° 0 mm 2 mps 745 mmHg 78%
    18:00 +8°C° 0 mm 2 mps 745 mmHg 82%
    19:00 +7°C° 0 mm 2 mps 745 mmHg 86%
    20:00 +7°C° 0 mm 2 mps 746 mmHg 86%
    21:00 +7°C° 0 mm 2 mps 746 mmHg 86%
    22:00 +7°C° 0 mm 2 mps 746 mmHg 87%
    23:00 +7°C° 0 mm 2 mps 746 mmHg 89%
    Show more